Regional Weather Roundup
Issued by NWS

Home | Current Version | Previous Version | Text Only | Print | Product List | Glossary On
Versions: 1 2 3 4 5 6 7 8 9 10 11 12 13 14 15 16 17 18 19 20 21 22 23 24 25 26 27 28 29 30 31 32 33 34 35 36 37 38 39 40 41 42 43 44 45 46 47 48 49 50
416
ASUS43 KMKX 260800
RWRWI

WISCONSIN REGIONAL WEATHER ROUNDUP
NATIONAL WEATHER SERVICE MILWAUKEE/SULLIVAN WI
300 AM CDT SUN MAR 26 2017

NOTE: "FAIR" INDICATES FEW OR NO CLOUDS BELOW 12,000 FEET WITH NO
SIGNIFICANT WEATHER AND/OR OBSTRUCTIONS TO VISIBILITY.

WIZ001-002-006>008-014>016-023>028-260900-
NORTHWEST WISCONSIN

CITY           SKY/WX    TMP DP  RH WIND       PRES   REMARKS
SUPERIOR ARPT  CLOUDY    33  32  96 NE7       30.06F WCI  27
ASHLAND        MIX PCPN  32  31  96 N3        30.06F FOG
HAYWARD        LGT RAIN  34  32  92 NE6       30.01F FOG     WCI  29
SIREN          CLOUDY    34  31  87 NE5       30.02F WCI  30
CUMBERLAND     CLOUDY    34  32  93 E5        29.99F FOG     WCI  30
RICE LAKE      CLOUDY    35  34  94 CALM      30.02F FOG
CHETEK         DRIZZLE   34  34  99 CALM      30.01S
LADYSMITH      CLOUDY    34  33  96 NE3       30.02F
EAU CLAIRE     NOT AVBL
MENOMONIE      CLOUDY    35  35  97 NE6       30.00S WCI  30
NEW RICHMOND   CLOUDY    35  34  98 E7        30.00F WCI  29
OSCEOLA        LGT RAIN  37  37 100 E3        30.03F
$$

WIZ003>005-009-010-017-018-260900-
NORTH CENTRAL WISCONSIN

CITY           SKY/WX    TMP DP  RH WIND       PRES   REMARKS
MANITOWISH WTR MIX PCPN  32  32 100 E5        30.01F WCI  27
ARBOR VITAE    CLOUDY    34  33  94 SE6       30.00F WCI  29
WOODRUFF       CLOUDY    34  33  94 SE6       30.00F WCI  29
RHINELANDER    CLOUDY    33  32  96 E10       30.00F WCI  25
EAGLE RIVER    CLOUDY    32  32  99 E8        30.01F WCI  25
LAND O LAKES   CLOUDY    32  32  99 SE7       30.03F WCI  26
PHILLIPS       CLOUDY    32  32 100 E3        30.00F
TOMAHAWK       CLOUDY    32  31  96 E3        30.01F
MEDFORD        CLOUDY    32  31  98 E9        29.98S FOG     WCI  24
MERRILL        CLOUDY    33  32  99 E8        30.01F WCI  25
$$

WIZ029-030-035-036-043>047-260900-
CENTRAL WISCONSIN

CITY           SKY/WX    TMP DP  RH WIND       PRES   REMARKS
WAUSAU         CLOUDY    32  32 100 E9        29.98F FOG     WCI  24
MOSINEE        CLOUDY    32  32 100 E9        30.00F FOG     WCI  24
MARSHFIELD     LGT RAIN  33  31  92 E9        29.96F FOG     WCI  25
STEVENS POINT  CLOUDY    32  32 100 E8G16     30.00F WCI  24
WAUPACA        CLOUDY    37  35  94 NE6       30.01F FOG     WCI  32
WAUTOMA        MIX PCPN  35  34  96 E9        29.98F FOG     WCI  28
WISC RAPIDS    LGT RAIN  34  34 100 E10       29.98F FOG     WCI  26
CAMP DOUGLAS   NOT AVBL
$$

WIZ011>013-019>022-031-037>040-048>050-260900-
NORTHEAST WISCONSIN

CITY           SKY/WX    TMP DP  RH WIND       PRES   REMARKS
ANTIGO         CLOUDY    31  31 100 E9        30.02F FOG     WCI  22
SHAWANO        CLOUDY    35  33  93 E12       30.05F WCI  26
OCONTO         CLOUDY    33  32  98 NE8       30.06F WCI  25
STURGEON BAY   MIX PCPN  34  34 100 E7        30.05F FOG     WCI  28
GREEN BAY      CLOUDY    35  35 100 NE13      30.02F FOG     WCI  26
MANITOWOC      NOT AVBL
APPLETON       CLOUDY    34  34 100 NE12      29.99F FOG     WCI  25
CLINTONVILLE   CLOUDY    34  32  93 NE7       30.03F WCI  28
OSHKOSH        CLOUDY    36  35  96 NE10      29.98F FOG     WCI  28
$$

WIZ032>034-041-042-053>061-260900-
SOUTHWEST WISCONSIN

CITY           SKY/WX    TMP DP  RH WIND       PRES   REMARKS
LA CROSSE      CLOUDY    38  36  92 NE7       29.95F WCI  33
SPARTA         DRIZZLE   35  34  99 NE8       29.97F WCI  28
VIROQUA        CLOUDY    36  36 100 E14       29.92F WCI  27
BOSCOBEL       LGT RAIN  40  38  93 VRB5      29.92F FOG
PRAIRIE DU CHI CLOUDY    39  38  97 NE7       29.91F WCI  34
PLATTEVILLE    CLOUDY    40  40 100 NE12      29.88F WCI  33
$$

WIZ056-057-062-063-064-067-068-260900-
SOUTH CENTRAL WISCONSIN

CITY           SKY/WX    TMP DP  RH WIND       PRES   REMARKS
REEDSBURG      CLOUDY    37  37 100 E7        29.94F FOG     WCI  31
BARABOO/DELLS  DRIZZLE   37  36  98 NE10G16   29.94F WCI  29
LONE ROCK      LGT RAIN  40  38  93 E9        29.93F FOG     WCI  34
MINERAL POINT  RAIN      41  41 100 NE12      29.89F
MADISON        CLOUDY    39  39 100 NE8       29.92F FOG     WCI  33
MIDDLETON      CLOUDY    40  40 100 NE9       29.92F WCI  34
WATERTOWN      CLOUDY    39  39 100 E10       29.92F FOG     WCI  32
MONROE         SNOW      41  41 100 NE13      29.88F VSB 1/4
JANESVILLE     CLOUDY    43  43 100 E10       29.89F FOG
$$

WIZ051-052-058>065-066-070>072-260900-
SOUTHEAST WISCONSIN

CITY           SKY/WX    TMP DP  RH WIND       PRES   REMARKS
MILWAUKEE      LGT RAIN  39  37  92 NE15      29.95F FOG     WCI  31
WAUKESHA       FOG       36  36 100 NE9G16    29.96F VSB 1/2 WCI  29
MILWAUKEE/TIMM CLOUDY    37  36  93 NE7       29.98F FOG     WCI  32
RACINE         LGT RAIN  40  38  93 NE9       29.96F FOG     WCI  34
KENOSHA        LGT RAIN  42  41  96 NE12      29.93F VSB 1/2
FOND DU LAC    CLOUDY    38  35  89 E10       29.97F WCI  31
SHEBOYGAN      CLOUDY    37  35  92 NE12      29.99F FOG     WCI  29
WEST BEND      CLOUDY    37  37 100 E12       29.97F FOG     WCI  30
JUNEAU         CLOUDY    38  38  98 NE13      29.95F FOG     WCI  30
$$

LSZ147-162-260900-
LAKE SUPERIOR

STATION/POSITION TIME  TEMP    WIND        PRES    WAVE
                       AIR SEA DIR/SP/G            HT/PER
                 (UTC) (F)     (DEG/KT/KT) (MB)    (FT/S)
DEVILS ISLAND    0700   34      90/ 10/ 11 1019.7F
PORT WING        0740   34      40/  5/  6 1018.3F
SAXON HARBOR     0730   32      70/  3/  7 1017.9F
$$

LMZ867-665-643>646-260900-
LAKE MICHIGAN

STATION/POSITION TIME  TEMP    WIND        PRES    WAVE
                       AIR SEA DIR/SP/G            HT/PER
                 (UTC) (F)     (DEG/KT/KT) (MB)    (FT/S)
CHAMBERS ISLAND  0740   33      40/  9/ 14 1017.9F
NORTHPORT PIER   0740   33      80/ 15/ 19 1018.6F
SISTER BAY       0706   33     110/  8/ 13   N/A
KEWAUNEE LAKESHO 0730   36      60/  9/ 13 1016.9F
SHEBOYGAN LAKESH 0700   36      30/ 12/ 13 1017.0F
PORT WASHINGTON  0740   38      40/ 14/ 17 1016.3F
MILWAUKEE LAKESH 0730   38      20/ 15/ 17   N/A
KENOSHA   LAKESH 0700   39      40/ 14/ 16 1014.2
$$

TC  - TEMPERATURE IN CELSIUS
VSB - VISIBILITY IN STATUTE MILES
WCI - WIND CHILL INDEX
HX  - HEAT INDEX





USA.gov is the U.S. government's official web portal to all federal, state and local government web resources and services.